PROFILE

 METAR AND TAF INFORMATION
ADDS - METARS form results

(0636 UTC 20 September 2020)
http://aviationweather.gov/metar/data/
 
LFMN 200630Z 01004KT 9999 BKN043 BKN066 21/18 Q1014 NOSIG
LFMN 200600Z 34004KT 9999 FEW043TCU BKN046 20/18 Q1014 NOSIG
TAF LFMN 200200Z 2003/2109 08012KT 9999 FEW030 SCT100 TEMPO 2003/2007 34010KT TEMPO 2003/2017 SHRA BKN050TCU TEMPO 2003/2009 VRB15G30KT 4000 TSRA SCT020 BKN030CB BECMG 2017/2019 34010KT NSC PROB30 TEMPO 2103/2107 SHRA FEW060TCU BKN110 BECMG 2107/2109 09010KT 

 AIRPORT MAP

 RUNWAY INFORMATION
Runway 04L Runway length 8995 ft Runway width 148 ft
Runway elevation 10 ft Runway displaced threshold 0 ft Runway heading 45
Runway 22R Runway length 8995 ft Runway width 148 ft
Runway elevation 10 ft Runway displaced threshold 575 ft Runway heading 225
Runway 04R Runway length 9712 ft Runway width 148 ft
Runway elevation 10 ft Runway displaced threshold 0 ft Runway heading 45
Runway 22L Runway length 9712 ft Runway width 148 ft
Runway elevation 12 ft Runway displaced threshold 0 ft Runway heading 225

 AIRPORT FREQUENCIES
Type A/D Name NICE APP Frequency 124.175 MHZ
Type ATIS Name NICE ATIS Frequency 129.6 MHZ
Type GND Name NICE GND Frequency 121.775 MHZ
Type TWR Name NICE TWR Frequency 118.7 MHZ

 AIRPORT NEAR NAVIGATION AIDS
Type VOR-DME Name Nice Cote D Azur Frequency 109650 KHZ
Type VOR-DME Name Cagnes Sur Mer Frequency 109200 KHZ
Type NDB Name Nice Frequency 399 KHZ
Type VOR-DME Name Nice Frequency 112400 KHZ